Hondo, TX

7:37 AM CST on December 15, 2019 (GMT -0600)
Hondo Municipal

Weather History for KHDO - October, 2019

Change the Weather History Date:

Wednesday, October 9, 2019

  Actual Average Record
Temperature  
Mean Temperature 82 °F -  
Max Temperature 95 °F 80 °F 95 °F (2019)
Min Temperature 70 °F 59 °F 39 °F (2000)
Cooling Degree Days 16    
Growing Degree Days 32 (Base 50)    
Moisture  
Dew Point 67 °F    
Average Humidity 68    
Maximum Humidity 87    
Minimum Humidity 35    
Precipitation  
Precipitation 0.00 in - - ()
Sea Level Pressure  
Sea Level Pressure 29.88 in    
Wind  
Wind Speed 10 mph (SSE)    
Max Wind Speed 21 mph    
Max Gust Speed 30 mph    
Visibility 10 miles    
Events      
Averages and records for this station are not official NWS values.
T = Trace of Precipitation, MM = Missing Value Source: NWS Daily Summary

Daily Weather History Graph

Daily Weather History Graph

Search for Another Location

Airport or City:

Astronomy

Oct. 09, 2019 Rise Set
Actual Time 7:34 AM CDT 7:13 PM CDT
Civil Twilight 7:10 AM CDT 7:36 PM CDT
Nautical Twilight 6:42 AM CDT 8:04 PM CDT
Astronomical Twilight 6:15 AM CDT 8:32 PM CDT
Moon 5:22 PM CDT (10/9) 3:48 AM CDT (10/9)
Length of Visible Light 12h 26m
Length of Day
11h 38m
Waxing Gibbous, 85% of the Moon is Illuminated
Oct 9
Waxing Gibbous
Oct 13
Full
Oct 21
Last Quarter
Oct 27
New
Nov 4
First Quarter

Hourly Weather History & Observations

Time (CDT) Temp. Heat Index Dew Point Humidity Pressure Visibility Wind Dir Wind Speed Gust Speed Precip Events Conditions
12:51 AM 73.0 °F - 57.9 °F 59% 29.92 in 10.0 mi SE 10.4 mph - N/A   Clear
1:51 AM 72.0 °F - 63.0 °F 73% 29.91 in 10.0 mi SSE 6.9 mph - N/A   Clear
2:51 AM 70.0 °F - 64.0 °F 81% 29.91 in 10.0 mi SE 5.8 mph - N/A   Partly Cloudy
3:04 AM 71.1 °F - 64.9 °F 81% 29.95 in 10.0 mi SSE 5.8 mph - N/A   Mostly Cloudy
3:51 AM 72.0 °F - 68.0 °F 87% 29.89 in 10.0 mi SSE 9.2 mph - N/A   Mostly Cloudy
4:14 AM 72.0 °F - 68.0 °F 87% 29.94 in 10.0 mi SSE 9.2 mph - N/A   Overcast
4:24 AM 73.0 °F - 69.1 °F 87% 29.94 in 10.0 mi South 11.5 mph - N/A   Overcast
4:51 AM 73.0 °F - 69.1 °F 87% 29.90 in 10.0 mi South 8.1 mph - N/A   Overcast
5:00 AM 73.0 °F - 69.1 °F 87% 29.95 in 10.0 mi South 9.2 mph - N/A   Overcast
5:10 AM 73.0 °F - 69.1 °F 87% 29.95 in 10.0 mi South 12.7 mph - N/A   Overcast
5:51 AM 73.0 °F - 69.1 °F 87% 29.91 in 10.0 mi South 8.1 mph - N/A   Overcast
5:57 AM 73.0 °F - 69.1 °F 87% 29.95 in 10.0 mi South 8.1 mph - N/A   Mostly Cloudy
6:15 AM 73.0 °F - 69.1 °F 87% 29.96 in 10.0 mi SSE 5.8 mph - N/A   Mostly Cloudy
6:51 AM 73.9 °F - 69.1 °F 85% 29.92 in 10.0 mi SSE 5.8 mph - N/A   Overcast
7:51 AM 73.9 °F - 69.1 °F 85% 29.93 in 10.0 mi SSE 5.8 mph - N/A   Overcast
7:58 AM 73.9 °F - 70.0 °F 87% 29.97 in 10.0 mi SSE 6.9 mph - N/A   Overcast
8:51 AM 75.0 °F - 70.0 °F 84% 29.93 in 10.0 mi South 5.8 mph - N/A   Overcast
9:30 AM 77.0 °F - 69.1 °F 76% 29.98 in 10.0 mi South 12.7 mph - N/A   Overcast
9:51 AM 77.0 °F - 69.1 °F 76% 29.94 in 10.0 mi South 11.5 mph - N/A   Overcast
10:51 AM 82.0 °F 85.5 °F 69.1 °F 65% 29.93 in 10.0 mi South 15.0 mph - 0.00 in   Overcast
11:26 AM 84.0 °F 87.0 °F 68.0 °F 58% 29.97 in 10.0 mi SSE 17.3 mph 26.5 mph N/A   Scattered Clouds
11:51 AM 86.0 °F 88.8 °F 66.9 °F 53% 29.91 in 10.0 mi SSE 18.4 mph 27.6 mph N/A   Partly Cloudy
12:51 PM 88.0 °F 89.6 °F 64.9 °F 46% 29.89 in 10.0 mi SSW 12.7 mph 23.0 mph N/A   Scattered Clouds
1:51 PM 91.0 °F 93.0 °F 64.9 °F 42% 29.84 in 10.0 mi South 17.3 mph 25.3 mph N/A   Mostly Cloudy
2:51 PM 91.0 °F 92.6 °F 64.0 °F 41% 29.80 in 10.0 mi South 18.4 mph 29.9 mph N/A   Scattered Clouds
3:51 PM 91.9 °F 92.9 °F 63.0 °F 38% 29.77 in 10.0 mi South 19.6 mph 25.3 mph N/A   Clear
4:51 PM 93.9 °F 94.8 °F 62.1 °F 35% 29.75 in 10.0 mi South 13.8 mph - N/A   Scattered Clouds
5:51 PM 91.9 °F 91.8 °F 61.0 °F 35% 29.74 in 10.0 mi South 18.4 mph - N/A   Clear
6:51 PM 90.0 °F 90.3 °F 62.1 °F 39% 29.74 in 10.0 mi South 15.0 mph - N/A   Clear
7:51 PM 86.0 °F 86.3 °F 62.1 °F 44% 29.75 in 10.0 mi SSE 9.2 mph - N/A   Clear
8:51 PM 84.9 °F 87.1 °F 66.0 °F 53% 29.76 in 10.0 mi SE 16.1 mph - N/A   Clear
9:51 PM 82.9 °F 85.8 °F 68.0 °F 60% 29.78 in 10.0 mi SE 20.7 mph 29.9 mph N/A   Clear
10:51 PM 81.0 °F 84.1 °F 69.1 °F 67% 29.80 in 10.0 mi SE 16.1 mph - N/A   Clear
11:51 PM 79.0 °F - 70.0 °F 74% 29.81 in 10.0 mi SE 10.4 mph - N/A   Clear